ATLAS 5 CENTAUR DEB, 44673

Orbit data source: Space-Track

ATLAS 5 CENTAUR DEB, 44673 is space debris in HEO originally from a launch on Wed, 17 Oct 2018 UTC launched from the Air Force Eastern Test Range (AFETR). Debris objects in space refer to the collection of defunct objects orbiting the Earth. Examples of debris include non-operational satellites, rocket bodies, and fragments generated from explosions, collisions, or faulty payload assembly.

Loading next visibility...
Identifier
44673, 2018-079AK
Orbit
HEO
Country
Flag of USUS
Related business
Flag of USUnited Launch Alliance/Lockheed Martin (US)
Manufacturer
ULA Decatur
Mission
Spacecraft
Bus & Motor
Unknown
Mass
Unknown
Launch date (UTC)
2018-10-17 (7 years ago)
Launch vehicle
Unknown
Launch site
Air Force Eastern Test Range (AFETR)
Object type
Payload
Rocket body
Debris
Shape & HBR
Unknown shape, 1.1 m
Radar Cross Section
RCS unknown

Expand to show TLE details & history
Last TLE update: 7 hours ago

TLE from 7 hours ago
0 ATLAS 5 CENTAUR DEB
1 44673U 18079AK  26037.29213707 -.00000160  00000-0  00000-0 0  9996
2 44673  13.2285  54.1604 4708866 274.4274  35.1024  1.77547305 47540
Epoch: 2026-02-06T07:00Z
TLE epoch observation values (Epoch: 2026-02-06T07:00:40.642Z)
Latitude
-0.00001°
Longitude
172.65319°
Altitude
15,250.415 km
Speed
4.798 km/s
True Right ascension
03h 37m 01s
True Declination
0° 00' 00"
Sunlit
Object was in daylight at epoch
Visualization orbit readout
Latitude
Unknown
Longitude
Unknown
Altitude
Unknown
Speed
Unknown
Apparent Right ascension
Unknown
Apparent Declination
Unknown
Sunlit
N/A
Visualization observer readout
Local Sidereal Time
16:24:50
Azimuth
Unknown
Elevation
Unknown
Doppler factor
Unknown
Orbital elements
Apogee altitude
35,999.445 km
Perigee altitude
8,866.102 km
Semi-major axis
28,810.91 km
Eccentricity
0.47089
Inclination
13.2285°
RAAN
54.1604°
Arg. of periapsis
274.4274°
True anomaly
85.4611°
Mean anomaly
35.1024°
Eccentric anomaly
57.97679°
Mean motion
0.44382 °/min
Orbital period
811.14 mins
BSTAR
0
Loading maneuver chart data...
Computing Atmospheric mass density...

Documentation

Showing up to 5 results
|